Weather History for KAQV - February, 2014

Change the Weather History Date:

Wednesday, February 5, 2014

  Actual Average (KPOE) Record (KPOE)
Temperature  
Mean Temperature 36 °F -  
Max Temperature 39 °F 58 °F 78 °F (2008)
Min Temperature 33 °F 41 °F 21 °F (2011)
Degree Days  
Heating Degree Days 29    
Moisture  
Dew Point 32 °F    
Average Humidity 85    
Maximum Humidity 100    
Minimum Humidity 65    
Precipitation  
Precipitation 0.01 in - - ()
Sea Level Pressure  
Sea Level Pressure 30.25 in    
Wind  
Wind Speed 2 mph (North)    
Max Wind Speed 12 mph    
Max Gust Speed 25 mph    
Visibility 7 miles    
Events Fog    
Averages and records for this station are not official NWS values.
T = Trace of Precipitation, MM = Missing Value Source: NWS Daily Summary

Daily Weather History Graph

Daily Weather History Graph

Search for Another Location

Airport or City:

Trip Planner

Search our weather history database for the weather conditions in past years. The results will help you decide how hot, cold, wet, or windy it might be!

Date:

Astronomy

Feb. 05, 2014 Rise Set
Actual Time 7:02 AM CST 5:51 PM CST
Civil Twilight 6:37 AM CST 6:17 PM CST
Nautical Twilight 6:08 AM CST 6:45 PM CST
Astronomical Twilight 5:40 AM CST 7:14 PM CST
Moon 10:45 AM CST (2/5) No Moon Set
Length of Visible Light 11h 39m
Length of Day
10h 48m
Waxing Crescent, 39% of the Moon is Illuminated
Feb 5
Waxing Crescent
Feb 6
First Quarter
Feb 14
Full
Feb 22
Last Quarter
Mar 1
New

Hourly Weather History & Observations

Time (CST) Temp. Windchill Dew Point Humidity Pressure Visibility Wind Dir Wind Speed Gust Speed Precip Events Conditions
12:52 AM 35.6 °F - 33.8 °F 93% 30.07 in 4.0 mi Calm Calm - N/A   Scattered Clouds
12:56 AM 35.1 °F - 34.0 °F 96% 30.08 in 4.0 mi Calm Calm - N/A   Mostly Cloudy
1:07 AM 35.6 °F - 33.8 °F 93% 30.08 in 1.8 mi Calm Calm - N/A   Mostly Cloudy
1:32 AM 33.8 °F - 33.8 °F 100% 30.08 in 0.5 mi Calm Calm - N/A Fog Fog
1:56 AM 34.0 °F - 33.1 °F 96% 30.09 in 0.5 mi Calm Calm - N/A Fog Fog
2:56 AM 33.1 °F - 32.0 °F 96% 30.11 in 1.8 mi Calm Calm - N/A   Overcast
3:09 AM 33.8 °F - 32.0 °F 93% 30.11 in 0.8 mi Calm Calm - N/A   Mist
3:17 AM 33.8 °F - 32.0 °F 93% 30.11 in 1.0 mi Calm Calm - N/A   Overcast
3:26 AM 33.8 °F - 33.8 °F 100% 30.12 in 3.0 mi Calm Calm - N/A   Overcast
3:56 AM 37.0 °F - 36.0 °F 96% 30.14 in 9.0 mi Calm Calm - N/A   Overcast
4:46 AM 37.4 °F - 35.6 °F 93% 30.14 in 10.0 mi Calm Calm - N/A   Scattered Clouds
4:56 AM 36.0 °F - 35.1 °F 97% 30.15 in 9.0 mi Calm Calm - N/A   Scattered Clouds
5:06 AM 35.6 °F - 35.6 °F 100% 30.15 in 7.0 mi Calm Calm - N/A   Mostly Cloudy
5:27 AM 35.6 °F - 33.8 °F 93% 30.17 in 7.0 mi Calm Calm - N/A   Scattered Clouds
5:52 AM 35.6 °F - 33.8 °F 93% 30.18 in 5.0 mi Calm Calm - N/A   Mostly Cloudy
5:56 AM 35.1 °F - 33.1 °F 92% 30.19 in 5.0 mi Calm Calm - N/A   Mostly Cloudy
6:31 AM 35.6 °F - 33.8 °F 93% 30.20 in 5.0 mi Calm Calm - N/A   Partly Cloudy
6:56 AM 34.0 °F - 32.0 °F 92% 30.22 in 3.0 mi Calm Calm - 0.01 in   Clear
7:10 AM 33.8 °F - 32.0 °F 93% 30.22 in 2.5 mi Calm Calm - N/A   Clear
7:18 AM 33.8 °F - 32.0 °F 93% 30.23 in 3.0 mi Calm Calm - N/A   Partly Cloudy
7:31 AM 33.8 °F - 33.8 °F 100% 30.23 in 4.0 mi Calm Calm - N/A   Mostly Cloudy
7:56 AM 36.0 °F - 35.1 °F 97% 30.26 in 4.0 mi Calm Calm - N/A   Overcast
8:09 AM 37.4 °F - 35.6 °F 93% 30.26 in 5.0 mi Calm Calm - N/A   Overcast
8:15 AM 35.6 °F - 35.6 °F 100% 30.26 in 5.0 mi Calm Calm - N/A   Overcast
8:56 AM 37.0 °F 33.3 °F 35.1 °F 93% 30.30 in 5.0 mi NNW 4.6 mph - N/A   Overcast
9:14 AM 37.4 °F 33.8 °F 35.6 °F 93% 30.30 in 7.0 mi North 4.6 mph - N/A   Overcast
9:33 AM 37.4 °F 32.8 °F 35.6 °F 93% 30.32 in 10.0 mi Variable 5.8 mph - N/A   Overcast
9:56 AM 37.9 °F 31.5 °F 34.0 °F 86% 30.35 in 10.0 mi North 9.2 mph - N/A   Overcast
10:56 AM 39.0 °F 35.7 °F 33.1 °F 79% 30.36 in 10.0 mi North 4.6 mph - N/A   Overcast
11:56 AM 39.0 °F 33.4 °F 32.0 °F 76% 30.34 in 10.0 mi North 8.1 mph - N/A   Overcast
12:56 PM 39.9 °F 34.5 °F 30.9 °F 70% 30.32 in 10.0 mi North 8.1 mph - N/A   Overcast
1:56 PM 39.9 °F 34.5 °F 30.0 °F 68% 30.32 in 10.0 mi NNW 8.1 mph - N/A   Overcast
2:56 PM 39.0 °F 34.8 °F 30.0 °F 70% 30.32 in 10.0 mi North 5.8 mph - N/A   Overcast
3:56 PM 39.0 °F 32.8 °F 28.9 °F 67% 30.32 in 10.0 mi North 9.2 mph 19.6 mph N/A   Overcast
4:31 PM 39.2 °F 33.0 °F 28.4 °F 65% 30.31 in 10.0 mi North 9.2 mph 21.9 mph N/A   Scattered Clouds
4:56 PM 37.9 °F 31.5 °F 28.9 °F 70% 30.33 in 10.0 mi North 9.2 mph 18.4 mph N/A   Partly Cloudy
5:38 PM 37.4 °F 32.8 °F 28.4 °F 70% 30.33 in 10.0 mi North 5.8 mph - N/A   Mostly Cloudy
5:56 PM 37.9 °F 34.4 °F 28.9 °F 70% 30.34 in 10.0 mi North 4.6 mph - N/A   Overcast
6:27 PM 37.4 °F 33.8 °F 28.4 °F 70% 30.34 in 10.0 mi North 4.6 mph - N/A   Scattered Clouds
6:56 PM 36.0 °F 33.3 °F 28.9 °F 76% 30.35 in 10.0 mi NNE 3.5 mph - N/A   Partly Cloudy
7:14 PM 37.4 °F 33.8 °F 28.4 °F 70% 30.34 in 10.0 mi NNE 4.6 mph - N/A   Mostly Cloudy
7:56 PM 37.0 °F 31.0 °F 28.0 °F 70% 30.35 in 10.0 mi NNE 8.1 mph - N/A   Overcast
8:28 PM 35.6 °F 28.6 °F 26.6 °F 70% 30.35 in 10.0 mi North 9.2 mph 17.3 mph N/A   Scattered Clouds
8:56 PM 35.1 °F 27.4 °F 26.1 °F 70% 30.36 in 10.0 mi NNE 10.4 mph 18.4 mph N/A   Clear
9:56 PM 34.0 °F 26.6 °F 25.0 °F 70% 30.38 in 10.0 mi North 9.2 mph 25.3 mph N/A   Clear
10:49 PM 33.8 °F 27.7 °F 24.8 °F 70% 30.37 in 10.0 mi NNE 6.9 mph - N/A   Mostly Cloudy
10:56 PM 33.1 °F 24.4 °F 24.1 °F 70% 30.38 in 10.0 mi NNE 11.5 mph 17.3 mph N/A   Mostly Cloudy
11:56 PM 33.1 °F 27.7 °F 24.1 °F 70% 30.39 in 10.0 mi NNE 5.8 mph - N/A   Overcast